Regional Weather Roundup
Issued by NWS Charleston, SC

Current Version | Previous Version | Text Only | Print | Product List | Glossary Off
Versions: 1 2 3 4 5 6 7 8 9 10 11 12 13 14 15 16 17 18 19 20 21 22 23 24 25 26 27 28 29 30 31 32 33 34 35 36 37 38 39 40 41 42 43 44 45 46 47 48 49 50

000
ASUS42 KCHS 242127
RWRCHS

Regional Weather Roundup
National Weather Service Charleston SC
400 PM EST SAT FEB 24 2018

NOTE: "fair" indicates few or no clouds below 12,000 feet with no
significant weather and/or obstructions to visibility.

Not all stations are quality controlled. Use data with caution,
especially dewpoint observations.

SCZ027-030-031-034>040-042>050-242200-
...Southeast South Carolina...

CITY           SKY/WX    TMP DP  RH WIND       PRES   REMARKS
N Charleston   FAIR      79  61  53 S17       30.13F
Waterfront Prk   N/A     73  64  73 SW12      29.99F
Mount Pleasant FAIR      75  64  69 S14       30.15S
Johns Island   FAIR      75  66  73 S14       30.15F
Pinopolis        N/A     79  63  57 S7        30.06F
Moncks Corner  MOCLDY    79  55  44 S10       30.12F HAZE
Summerville    FAIR      79  61  53 S8        30.13S
Beaufort MCAS  FAIR      75  68  78 S12       30.13F
Beaufort Arpt  FAIR      73  64  73 S14       30.14S HAZE
Hilton Head Is SUNNY     72  66  83 S7G14     30.16F
Walterboro     FAIR      81  61  50 S9        30.12F
Allendale      FAIR      81  57  44 S7G15     30.09F

...Southern Midlands and Pee Dee...

CITY           SKY/WX    TMP DP  RH WIND       PRES   REMARKS
Georgetown     FAIR      75  63  64 S15       30.14F
Kingstree      FAIR      79  55  44 SW8       30.11F
Orangeburg     FAIR      80  57  45 S10       30.10F
Barnwell         N/A     82  63  51 S7        30.09F
Aiken          MOCLDY    79  59  50 S10       30.12F
Manning        FAIR     N/A N/A N/A MISG      30.11F
Columbia       FAIR      82  59  45 SW14      30.08F
Sumter         FAIR      82  58  43 S7        30.07F
Florence       FAIR      81  57  43 SW13      30.11F
Myrtle Beach   FAIR      73  64  73 S17       30.14F
N Myrtle Beach FAIR      70  64  81 S14       30.14F

$$

GAZ063-065-086>088-099>101-113>116-118-119-134>141-150-242200-
...Southeast Georgia...

CITY           SKY/WX    TMP DP  RH WIND       PRES   REMARKS
Savannah Arpt  FAIR      81  62  52 S15       30.13F
Hunter AAF     FAIR      77  67  70 SE12      30.11F
Fort Stewart   FAIR      84  56  38 CALM      30.10F
Statesboro     FAIR      83  51  31 SW10      30.10F
Sylvania       FAIR      82  62  50 SW5       30.11F
Claxton        FAIR      83  58  41 SE8       30.10F

...CSRA, Central and far Southeast Georgia...

CITY           SKY/WX    TMP DP  RH WIND       PRES   REMARKS
Thomson        FAIR      82  58  44 SW9       30.12F
Augusta-Bush   FAIR      81  59  47 S10       30.07F
Augusta-Daniel PTSUNNY   82  58  43 SW10      30.09F
Swainsboro     FAIR      82  59  44 SW7       30.10F
Vidalia        FAIR      86  57  37 S9        30.10F
Eastman        MOCLDY    86  37  17 S10       30.10F
Hazlehurst     FAIR      84  46  25 SW8       30.09F
Alma           FAIR      85  56  37 S12G17    30.10F
Waycross       PTSUNNY   84  52  33 S12       30.11S
Jesup          FAIR      84  54  34 CALM      30.11F
Baxley         FAIR      81  55  41 S8        30.10F
Brunswick      FAIR      77  61  57 S13       30.14F
Saint Simons   FAIR      75  66  73 SE12G21   30.14F

$$

SCZ027-028-034-036>038-045-046-048>050-GAZ119-141-242200-
...Lake and Supplemental Coastal Observations...

STATION/POSITION TIME  TEMP    WIND        PRES    WAVE   SWELL
                       AIR SEA DIR/SP/G            HT/PER HT/PER/DIR
                 (UTC) (F)     (DEG/KT/KT) (MB)    (FT/S) (FT/S/D)
Winyah Bay       2045   75     210/ 14     1021.0S
Lake Murray      2050   71     200/  6/  7 1017.9F
ACE Basin NERRS  2045   74     170/  4     1021.0S
Fort Pulaski     2100   73 63  180/  9/ 14 1020.9
Sapelo Island    2100   76     160/ 11     1020.0

$$

ANZ835-935-AMZ111-154-330-350-352-354-370-450-454-472-242200-
...C-MAN and Buoy Observations...

STATION/POSITION TIME  TEMP    WIND        PRES    WAVE   SWELL
                       AIR SEA DIR/SP/G            HT/PER HT/PER/DIR
                 (UTC) (F)     (DEG/KT/KT) (MB)    (FT/S) (FT/S/D)
Buoy 41004       2110   71 71  220/  6/  6 1021.6
Buoy 41008       2050   65 62  130/ 10/ 10 1020.7F   3/10   3/110/10
Folly Beach CMAN 2100   67     180/  7/  8 1021.9F
Capers Nearshore 2108   64 67  190/ 10/ 12 1020.8F
Fripp Nearshore  2108   65 65  160/  8/ 12 1019.8F


STATION/POSITION TIME  TEMP    WIND        PRES    WAVE   SWELL
                       AIR SEA DIR/SP/G            HT/PER HT/PER/DIR
                 (UTC) (F)     (DEG/KT/KT) (MB)    (FT/S) (FT/S/D)
5E St. Marys GA  2030      65                N/A     3/10   2/100/11
Frying Pan Buoy  2110   72 71  220/ 12/ 16 1021.5
Buoy 41025       2110   72 73  230/ 17/ 23 1021.3
Cape Lookout NC  2100          210/ 10/ 14 1021.3F
Buoy 41002       2050   72 73  230/  8/ 10 1023.7S   5/ 9   5/100/ 9
Buoy 41010       NOT AVBL
St Augustine FL  2100   71 69  120/  9/ 10 1021.2F


$$



USA.gov is the U.S. government's official web portal to all federal, state and local government web resources and services.